Time,TemperatureF,DewpointF,PressureIn,WindDirection,WindDirectionDegrees,WindSpeedMPH,WindSpeedGustMPH,Humidity,HourlyPrecipIn,Conditions,Clouds,dailyrainin,SolarRadiationWatts/m^2,SoftwareType,DateUTC
2013-03-09 00:00:00,38.6,27.9,30.07,NNE,19,7.0,14.0,65,0.00,,CLR,0.19,0.00,VWS V14.01,2013-03-09 05:00:00,
2013-03-09 00:05:00,38.6,27.5,30.07,WNW,296,18.0,22.0,64,0.00,,CLR,0.00,0.00,VWS V14.01,2013-03-09 05:05:00,
2013-03-09 00:10:00,38.5,27.4,30.07,NW,323,11.0,16.0,64,0.00,,CLR,0.00,0.00,VWS V14.01,2013-03-09 05:10:00,
2013-03-09 00:11:00,38.5,27.4,30.07,NW,311,9.0,16.0,64,0.00,,CLR,0.00,0.00,VWS V14.01,2013-03-09 05:11:00,
2013-03-09 00:16:00,38.5,27.4,30.07,NNW,329,11.0,20.0,64,0.00,,CLR,0.00,0.00,VWS V14.01,2013-03-09 05:16:00,
2013-03-09 00:21:00,38.5,27.4,30.07,NW,309,9.0,15.0,64,0.00,,CLR,0.00,0.00,VWS V14.01,2013-03-09 05:21:00,
2013-03-09 00:26:00,38.4,27.3,30.07,WNW,296,11.0,21.0,64,0.00,,CLR,0.00,0.00,VWS V14.01,2013-03-09 05:26:00,
2013-03-09 00:28:00,38.5,27.0,30.07,NNW,340,11.0,17.0,63,0.00,,CLR,0.00,0.00,VWS V14.01,2013-03-09 05:28:00,
2013-03-09 00:33:00,38.5,27.0,30.07,North,355,16.0,16.0,63,0.00,,CLR,0.00,0.00,VWS V14.01,2013-03-09 05:33:00,
2013-03-09 00:38:00,38.4,26.9,30.07,NW,322,15.0,16.0,63,0.00,,CLR,0.00,0.00,VWS V14.01,2013-03-09 05:38:00,
2013-03-09 00:43:00,38.4,27.3,30.07,NNW,331,8.0,17.0,64,0.00,,CLR,0.00,0.00,VWS V14.01,2013-03-09 05:43:00,
2013-03-09 00:48:00,38.2,27.5,30.07,NNW,347,14.0,16.0,65,0.00,,CLR,0.00,0.00,VWS V14.01,2013-03-09 05:48:00,
2013-03-09 00:53:00,38.0,27.3,30.07,WNW,302,16.0,18.0,65,0.00,,CLR,0.00,0.00,VWS V14.01,2013-03-09 05:53:00,
2013-03-09 00:58:00,37.9,27.2,30.08,NW,308,14.0,14.0,65,0.00,,CLR,0.00,0.00,VWS V14.01,2013-03-09 05:58:00,
2013-03-09 01:03:00,37.9,27.6,30.08,NNW,342,12.0,17.0,66,0.00,,CLR,0.00,0.00,VWS V14.01,2013-03-09 06:03:00,
2013-03-09 01:08:00,37.7,27.4,30.08,NW,319,11.0,16.0,66,0.00,,CLR,0.00,0.00,VWS V14.01,2013-03-09 06:08:00,
2013-03-09 01:13:00,37.8,27.5,30.08,NNW,344,9.0,16.0,66,0.00,,CLR,0.00,0.00,VWS V14.01,2013-03-09 06:13:00,
2013-03-09 01:18:00,37.8,27.1,30.08,NW,316,9.0,17.0,65,0.00,,CLR,0.00,0.00,VWS V14.01,2013-03-09 06:18:00,
2013-03-09 01:23:00,37.6,27.3,30.08,NNW,336,15.0,17.0,66,0.00,,CLR,0.00,0.00,VWS V14.01,2013-03-09 06:23:00,
2013-03-09 01:28:00,37.5,27.2,30.08,NW,313,10.0,17.0,66,0.00,,CLR,0.00,0.00,VWS V14.01,2013-03-09 06:28:00,
2013-03-09 01:33:00,37.5,26.8,30.08,NW,304,15.0,18.0,65,0.00,,CLR,0.00,0.00,VWS V14.01,2013-03-09 06:33:00,
2013-03-09 01:38:00,37.7,26.6,30.08,North,351,8.0,20.0,64,0.00,,CLR,0.00,0.00,VWS V14.01,2013-03-09 06:38:00,
2013-03-09 01:43:00,37.8,26.4,30.08,NW,326,7.0,16.0,63,0.00,,CLR,0.00,0.00,VWS V14.01,2013-03-09 06:43:00,
2013-03-09 01:48:00,37.7,26.6,30.08,NW,313,8.0,22.0,64,0.00,,CLR,0.00,0.00,VWS V14.01,2013-03-09 06:48:00,
2013-03-09 01:53:00,37.6,27.3,30.08,NNW,344,14.0,21.0,66,0.00,,CLR,0.00,0.00,VWS V14.01,2013-03-09 06:53:00,
2013-03-09 01:58:00,37.4,27.1,30.08,WNW,286,10.0,16.0,66,0.00,,CLR,0.00,0.00,VWS V14.01,2013-03-09 06:58:00,
2013-03-09 02:03:00,37.3,27.0,30.08,NW,314,16.0,17.0,66,0.00,,CLR,0.00,0.00,VWS V14.01,2013-03-09 07:03:00,
2013-03-09 02:08:00,37.2,26.9,30.08,NNW,327,9.0,17.0,66,0.00,,CLR,0.00,0.00,VWS V14.01,2013-03-09 07:08:00,
2013-03-09 02:13:00,37.0,26.7,30.08,NW,309,13.0,16.0,66,0.00,,CLR,0.00,0.00,VWS V14.01,2013-03-09 07:13:00,
2013-03-09 02:18:00,36.9,26.6,30.08,NW,319,11.0,14.0,66,0.00,,CLR,0.00,0.00,VWS V14.01,2013-03-09 07:18:00,
2013-03-09 02:23:00,36.9,26.2,30.08,North,5,14.0,16.0,65,0.00,,CLR,0.00,0.00,VWS V14.01,2013-03-09 07:23:00,
2013-03-09 02:28:00,37.1,26.1,30.08,NW,318,15.0,20.0,64,0.00,,CLR,0.00,0.00,VWS V14.01,2013-03-09 07:28:00,
2013-03-09 02:33:00,37.4,25.6,30.07,North,355,15.0,20.0,62,0.00,,CLR,0.00,0.00,VWS V14.01,2013-03-09 07:33:00,
2013-03-09 02:38:00,37.2,25.8,30.07,NNW,336,14.0,18.0,63,0.00,,CLR,0.00,0.00,VWS V14.01,2013-03-09 07:38:00,
2013-03-09 02:43:00,37.1,26.1,30.08,NNW,338,8.0,13.0,64,0.00,,CLR,0.00,0.00,VWS V14.01,2013-03-09 07:43:00,
2013-03-09 02:48:00,37.1,25.7,30.07,North,355,15.0,15.0,63,0.00,,CLR,0.00,0.00,VWS V14.01,2013-03-09 07:48:00,
2013-03-09 02:53:00,37.3,25.5,30.07,NNE,17,13.0,15.0,62,0.00,,CLR,0.00,0.00,VWS V14.01,2013-03-09 07:53:00,
2013-03-09 02:58:00,37.6,25.0,30.07,NNW,337,16.0,16.0,60,0.00,,CLR,0.00,0.00,VWS V14.01,2013-03-09 07:58:00,
2013-03-09 03:03:00,37.7,24.7,30.06,North,5,18.0,21.0,59,0.00,,CLR,0.00,0.00,VWS V14.01,2013-03-09 08:03:00,
2013-03-09 03:08:00,37.8,24.8,30.07,WNW,283,14.0,14.0,59,0.00,,CLR,0.00,0.00,VWS V14.01,2013-03-09 08:08:00,
2013-03-09 03:13:00,37.9,24.5,30.06,NNW,334,9.0,16.0,58,0.00,,CLR,0.00,0.00,VWS V14.01,2013-03-09 08:13:00,
2013-03-09 03:18:00,37.9,24.5,30.07,NNE,13,13.0,19.0,58,0.00,,CLR,0.00,0.00,VWS V14.01,2013-03-09 08:18:00,
2013-03-09 03:23:00,37.8,24.4,30.07,North,350,6.0,18.0,58,0.00,,CLR,0.00,0.00,VWS V14.01,2013-03-09 08:23:00,
2013-03-09 03:28:00,38.0,23.7,30.06,North,5,18.0,24.0,56,0.00,,CLR,0.00,0.00,VWS V14.01,2013-03-09 08:28:00,
2013-03-09 03:33:00,38.0,23.7,30.07,North,350,18.0,20.0,56,0.00,,CLR,0.00,0.00,VWS V14.01,2013-03-09 08:33:00,
2013-03-09 03:38:00,38.0,24.1,30.07,North,355,8.0,18.0,57,0.00,,CLR,0.00,0.00,VWS V14.01,2013-03-09 08:38:00,
2013-03-09 03:43:00,37.8,24.4,30.07,NNW,331,11.0,22.0,58,0.00,,CLR,0.00,0.00,VWS V14.01,2013-03-09 08:43:00,
2013-03-09 03:48:00,37.7,24.7,30.08,NNE,22,13.0,18.0,59,0.00,,CLR,0.00,0.00,VWS V14.01,2013-03-09 08:48:00,
2013-03-09 03:53:00,37.6,25.0,30.08,NNW,329,8.0,12.0,60,0.00,,CLR,0.00,0.00,VWS V14.01,2013-03-09 08:53:00,
2013-03-09 03:58:00,37.1,24.9,30.08,NNW,331,8.0,14.0,61,0.00,,CLR,0.00,0.00,VWS V14.01,2013-03-09 08:58:00,
2013-03-09 04:03:00,36.8,25.0,30.08,NNW,340,10.0,14.0,62,0.00,,CLR,0.00,0.00,VWS V14.01,2013-03-09 09:03:00,
2013-03-09 04:08:00,36.6,25.6,30.08,WNW,291,15.0,17.0,64,0.00,,CLR,0.00,0.00,VWS V14.01,2013-03-09 09:08:00,
2013-03-09 04:13:00,36.3,25.7,30.09,WNW,292,12.0,14.0,65,0.00,,CLR,0.00,0.00,VWS V14.01,2013-03-09 09:13:00,
2013-03-09 04:18:00,35.9,26.0,30.09,NW,314,16.0,18.0,67,0.00,,CLR,0.00,0.00,VWS V14.01,2013-03-09 09:18:00,
2013-03-09 04:23:00,35.8,26.3,30.09,NW,313,13.0,15.0,68,0.00,,CLR,0.00,0.00,VWS V14.01,2013-03-09 09:23:00,
2013-03-09 04:28:00,35.5,26.4,30.09,WNW,301,12.0,18.0,69,0.00,,CLR,0.00,0.00,VWS V14.01,2013-03-09 09:28:00,
2013-03-09 04:33:00,35.3,26.2,30.09,NNW,330,11.0,15.0,69,0.00,,CLR,0.00,0.00,VWS V14.01,2013-03-09 09:33:00,
2013-03-09 04:38:00,35.2,25.7,30.09,NW,324,19.0,19.0,68,0.00,,CLR,0.00,0.00,VWS V14.01,2013-03-09 09:38:00,
2013-03-09 04:43:00,35.2,25.7,30.09,NNW,348,7.0,13.0,68,0.00,,CLR,0.00,0.00,VWS V14.01,2013-03-09 09:43:00,
2013-03-09 04:48:00,35.3,25.8,30.10,NW,323,6.0,13.0,68,0.00,,CLR,0.00,0.00,VWS V14.01,2013-03-09 09:48:00,
2013-03-09 04:53:00,35.6,25.4,30.10,NW,313,12.0,15.0,66,0.00,,CLR,0.00,0.00,VWS V14.01,2013-03-09 09:53:00,
2013-03-09 04:58:00,35.7,25.5,30.10,NW,324,11.0,14.0,66,0.00,,CLR,0.00,0.00,VWS V14.01,2013-03-09 09:58:00,
2013-03-09 05:03:00,35.6,25.4,30.11,NNW,341,7.0,12.0,66,0.00,,CLR,0.00,0.00,VWS V14.01,2013-03-09 10:03:00,
2013-03-09 05:08:00,35.6,25.4,30.11,NNW,331,5.0,12.0,66,0.00,,CLR,0.00,0.00,VWS V14.01,2013-03-09 10:08:00,
2013-03-09 05:13:00,35.5,25.3,30.11,NNW,335,14.0,16.0,66,0.00,,CLR,0.00,0.00,VWS V14.01,2013-03-09 10:13:00,
2013-03-09 05:18:00,35.6,25.4,30.11,NW,324,10.0,14.0,66,0.00,,CLR,0.00,0.00,VWS V14.01,2013-03-09 10:18:00,
2013-03-09 05:23:00,35.6,25.0,30.12,NW,304,8.0,13.0,65,0.00,,CLR,0.00,0.00,VWS V14.01,2013-03-09 10:23:00,
2013-03-09 05:28:00,35.6,25.7,30.12,NW,319,10.0,15.0,67,0.00,,CLR,0.00,0.00,VWS V14.01,2013-03-09 10:28:00,
2013-03-09 05:33:00,35.5,25.3,30.12,NW,320,7.0,14.0,66,0.00,,CLR,0.00,0.00,VWS V14.01,2013-03-09 10:33:00,
2013-03-09 05:38:00,35.6,25.4,30.12,NW,323,7.0,11.0,66,0.00,,CLR,0.00,0.00,VWS V14.01,2013-03-09 10:38:00,
2013-03-09 05:43:00,35.5,25.6,30.12,NW,309,7.0,10.0,67,0.00,,CLR,0.00,0.00,VWS V14.01,2013-03-09 10:43:00,
2013-03-09 05:48:00,35.4,25.9,30.12,NW,323,12.0,13.0,68,0.00,,CLR,0.00,0.00,VWS V14.01,2013-03-09 10:48:00,
2013-03-09 05:53:00,35.3,25.5,30.13,WNW,302,10.0,14.0,67,0.00,,CLR,0.00,0.00,VWS V14.01,2013-03-09 10:53:00,
2013-03-09 05:58:00,35.3,25.5,30.13,WNW,298,8.0,10.0,67,0.00,,CLR,0.00,0.00,VWS V14.01,2013-03-09 10:58:00,
2013-03-09 06:03:00,35.2,25.7,30.13,NW,310,12.0,13.0,68,0.00,,CLR,0.00,0.00,VWS V14.01,2013-03-09 11:03:00,
2013-03-09 06:08:00,35.2,25.7,30.13,NW,318,9.0,15.0,68,0.00,,CLR,0.00,0.00,VWS V14.01,2013-03-09 11:08:00,
2013-03-09 06:12:00,35.2,25.7,30.14,NW,313,17.0,17.0,68,0.00,,CLR,0.00,7.00,VWS V14.01,2013-03-09 11:12:00,
2013-03-09 06:17:00,35.2,25.7,30.14,NW,315,8.0,11.0,68,0.00,,CLR,0.00,9.00,VWS V14.01,2013-03-09 11:17:00,
2013-03-09 06:22:00,35.3,25.5,30.14,NW,319,7.0,15.0,67,0.00,,CLR,0.00,12.00,VWS V14.01,2013-03-09 11:22:00,
2013-03-09 06:27:00,35.3,25.5,30.15,NW,309,11.0,11.0,67,0.00,,CLR,0.00,14.00,VWS V14.01,2013-03-09 11:27:00,
2013-03-09 06:32:00,35.4,25.9,30.14,NNW,347,9.0,10.0,68,0.00,,CLR,0.00,16.00,VWS V14.01,2013-03-09 11:32:00,
2013-03-09 06:37:00,35.4,25.9,30.14,NW,312,6.0,14.0,68,0.00,,CLR,0.00,19.00,VWS V14.01,2013-03-09 11:37:00,
2013-03-09 06:42:00,35.4,26.3,30.14,NNW,348,8.0,10.0,69,0.00,,CLR,0.00,21.00,VWS V14.01,2013-03-09 11:42:00,
2013-03-09 06:47:00,35.4,26.3,30.15,NW,306,6.0,12.0,69,0.00,,CLR,0.00,25.00,VWS V14.01,2013-03-09 11:47:00,
2013-03-09 06:52:00,35.4,26.3,30.15,NW,313,7.0,9.0,69,0.00,,CLR,0.00,33.00,VWS V14.01,2013-03-09 11:52:00,
2013-03-09 06:57:00,35.5,26.4,30.15,NW,322,8.0,10.0,69,0.00,,CLR,0.00,44.00,VWS V14.01,2013-03-09 11:57:00,
2013-03-09 07:02:00,35.7,26.2,30.15,NNW,345,10.0,12.0,68,0.00,,CLR,0.00,58.00,VWS V14.01,2013-03-09 12:02:00,
2013-03-09 07:07:00,35.9,26.7,30.16,NW,318,5.0,10.0,69,0.00,,CLR,0.00,74.00,VWS V14.01,2013-03-09 12:07:00,
2013-03-09 07:12:00,36.0,26.8,30.16,NW,318,3.0,6.0,69,0.00,,CLR,0.00,91.00,VWS V14.01,2013-03-09 12:12:00,
2013-03-09 07:17:00,36.1,26.6,30.16,NNW,344,9.0,11.0,68,0.00,,CLR,0.00,107.00,VWS V14.01,2013-03-09 12:17:00,
2013-03-09 07:22:00,36.4,25.4,30.16,NNE,19,8.0,12.0,64,0.00,,CLR,0.00,127.00,VWS V14.01,2013-03-09 12:22:00,
2013-03-09 07:27:00,36.8,24.6,30.16,North,350,4.0,12.0,61,0.00,,CLR,0.00,146.00,VWS V14.01,2013-03-09 12:27:00,
2013-03-09 07:32:00,37.2,24.6,30.17,NE,44,4.0,7.0,60,0.00,,CLR,0.00,167.00,VWS V14.01,2013-03-09 12:32:00,
2013-03-09 07:37:00,37.6,24.2,30.17,NNW,342,7.0,11.0,58,0.00,,CLR,0.00,188.00,VWS V14.01,2013-03-09 12:37:00,
2013-03-09 07:42:00,37.9,23.6,30.17,NNE,13,6.0,13.0,56,0.00,,CLR,0.00,209.00,VWS V14.01,2013-03-09 12:42:00,
2013-03-09 07:47:00,38.0,23.7,30.17,NW,323,7.0,11.0,56,0.00,,CLR,0.00,225.00,VWS V14.01,2013-03-09 12:47:00,
2013-03-09 07:52:00,38.1,23.8,30.17,NNW,346,7.0,9.0,56,0.00,,CLR,0.00,244.00,VWS V14.01,2013-03-09 12:52:00,
2013-03-09 07:57:00,38.2,23.5,30.17,NNW,348,5.0,11.0,55,0.00,,CLR,0.00,264.00,VWS V14.01,2013-03-09 12:57:00,
2013-03-09 08:02:00,38.3,24.0,30.17,NW,322,14.0,20.0,56,0.00,,CLR,0.00,281.00,VWS V14.01,2013-03-09 13:02:00,
2013-03-09 08:07:00,38.4,23.7,30.17,North,349,12.0,13.0,55,0.00,,CLR,0.00,297.00,VWS V14.01,2013-03-09 13:07:00,
2013-03-09 08:12:00,38.4,22.8,30.17,NNE,25,5.0,15.0,53,0.00,,CLR,0.00,315.00,VWS V14.01,2013-03-09 13:12:00,
2013-03-09 08:17:00,38.6,23.4,30.17,North,10,10.0,12.0,54,0.00,,CLR,0.00,327.00,VWS V14.01,2013-03-09 13:17:00,
2013-03-09 08:22:00,38.7,23.1,30.17,NNW,329,10.0,16.0,53,0.00,,CLR,0.00,345.00,VWS V14.01,2013-03-09 13:22:00,
2013-03-09 08:27:00,38.6,23.0,30.17,North,5,10.0,13.0,53,0.00,,CLR,0.00,357.00,VWS V14.01,2013-03-09 13:27:00,
2013-03-09 08:32:00,38.7,23.1,30.17,NNW,328,7.0,11.0,53,0.00,,CLR,0.00,376.00,VWS V14.01,2013-03-09 13:32:00,
2013-03-09 08:37:00,38.9,24.1,30.17,NNW,348,5.0,9.0,55,0.00,,CLR,0.00,390.00,VWS V14.01,2013-03-09 13:37:00,
2013-03-09 08:42:00,39.0,23.3,30.17,NNE,21,10.0,10.0,53,0.00,,CLR,0.00,404.00,VWS V14.01,2013-03-09 13:42:00,
2013-03-09 08:47:00,39.2,24.0,30.17,NNE,17,6.0,10.0,54,0.00,,CLR,0.00,420.00,VWS V14.01,2013-03-09 13:47:00,
2013-03-09 08:52:00,39.2,23.5,30.17,NNE,19,8.0,15.0,53,0.00,,CLR,0.00,434.00,VWS V14.01,2013-03-09 13:52:00,
2013-03-09 08:57:00,39.2,23.5,30.17,NNE,19,8.0,13.0,53,0.00,,CLR,0.00,448.00,VWS V14.01,2013-03-09 13:57:00,
2013-03-09 09:02:00,39.3,23.6,30.17,NNE,15,8.0,11.0,53,0.00,,CLR,0.00,462.00,VWS V14.01,2013-03-09 14:02:00,
2013-03-09 09:07:00,39.6,23.9,30.17,NNW,338,9.0,14.0,53,0.00,,CLR,0.00,478.00,VWS V14.01,2013-03-09 14:07:00,
2013-03-09 09:12:00,39.8,23.6,30.17,NNW,348,4.0,10.0,52,0.00,,CLR,0.00,492.00,VWS V14.01,2013-03-09 14:12:00,
2013-03-09 09:17:00,40.0,23.8,30.17,NW,317,4.0,6.0,52,0.00,,CLR,0.00,506.00,VWS V14.01,2013-03-09 14:17:00,
2013-03-09 09:22:00,40.4,24.2,30.17,North,355,5.0,10.0,52,0.00,,CLR,0.00,517.00,VWS V14.01,2013-03-09 14:22:00,
2013-03-09 09:27:00,40.5,24.3,30.18,NNW,337,7.0,11.0,52,0.00,,CLR,0.00,529.00,VWS V14.01,2013-03-09 14:27:00,
2013-03-09 09:32:00,40.6,24.4,30.18,North,355,5.0,10.0,52,0.00,,CLR,0.00,541.00,VWS V14.01,2013-03-09 14:32:00,
2013-03-09 09:37:00,40.8,25.0,30.17,NNW,344,6.0,9.0,53,0.00,,CLR,0.00,555.00,VWS V14.01,2013-03-09 14:37:00,
2013-03-09 09:42:00,40.9,23.7,30.18,NNW,339,7.0,11.0,50,0.00,,CLR,0.00,568.00,VWS V14.01,2013-03-09 14:42:00,
2013-03-09 09:47:00,41.1,24.4,30.18,NW,325,2.0,9.0,51,0.00,,CLR,0.00,577.00,VWS V14.01,2013-03-09 14:47:00,
2013-03-09 09:52:00,41.4,24.2,30.18,WNW,288,8.0,10.0,50,0.00,,CLR,0.00,585.00,VWS V14.01,2013-03-09 14:52:00,
2013-03-09 09:57:00,41.7,24.9,30.18,NNW,331,0.0,1.0,51,0.00,,CLR,0.00,599.00,VWS V14.01,2013-03-09 14:57:00,
2013-03-09 10:02:00,41.9,24.1,30.18,North,360,3.0,4.0,49,0.00,,CLR,0.00,610.00,VWS V14.01,2013-03-09 15:02:00,
2013-03-09 10:07:00,42.0,24.7,30.18,North,360,7.0,7.0,50,0.00,,CLR,0.00,621.00,VWS V14.01,2013-03-09 15:07:00,
2013-03-09 10:12:00,42.2,23.9,30.18,NNW,344,6.0,7.0,48,0.00,,CLR,0.00,631.00,VWS V14.01,2013-03-09 15:12:00,
2013-03-09 10:17:00,42.2,23.4,30.18,NNW,346,1.0,3.0,47,0.00,,CLR,0.00,638.00,VWS V14.01,2013-03-09 15:17:00,
2013-03-09 10:22:00,42.5,24.2,30.18,NNE,12,5.0,7.0,48,0.00,,CLR,0.00,647.00,VWS V14.01,2013-03-09 15:22:00,
2013-03-09 10:27:00,42.5,24.2,30.18,North,11,6.0,9.0,48,0.00,,CLR,0.00,657.00,VWS V14.01,2013-03-09 15:27:00,
2013-03-09 10:32:00,42.7,24.4,30.18,NNE,29,7.0,7.0,48,0.00,,CLR,0.00,666.00,VWS V14.01,2013-03-09 15:32:00,
2013-03-09 10:37:00,43.0,23.6,30.18,North,355,0.0,5.0,46,0.00,,CLR,0.00,675.00,VWS V14.01,2013-03-09 15:37:00,
2013-03-09 10:42:00,43.5,24.1,30.18,North,5,6.0,6.0,46,0.00,,CLR,0.00,682.00,VWS V14.01,2013-03-09 15:42:00,
2013-03-09 10:47:00,43.4,24.5,30.18,North,5,1.0,4.0,47,0.00,,CLR,0.00,207.00,VWS V14.01,2013-03-09 15:47:00,
2013-03-09 10:52:00,43.5,25.1,30.18,NNW,348,4.0,5.0,48,0.00,,CLR,0.00,696.00,VWS V14.01,2013-03-09 15:52:00,
2013-03-09 10:57:00,43.2,25.8,30.18,NW,319,1.0,7.0,50,0.00,,CLR,0.00,703.00,VWS V14.01,2013-03-09 15:57:00,
2013-03-09 11:02:00,43.3,25.4,30.18,NNE,13,2.0,2.0,49,0.00,,CLR,0.00,708.00,VWS V14.01,2013-03-09 16:02:00,
2013-03-09 11:07:00,43.7,25.3,30.18,North,5,5.0,5.0,48,0.00,,CLR,0.00,714.00,VWS V14.01,2013-03-09 16:07:00,
2013-03-09 11:12:00,43.8,25.4,30.19,North,360,4.0,6.0,48,0.00,,CLR,0.00,721.00,VWS V14.01,2013-03-09 16:12:00,
2013-03-09 11:17:00,43.8,25.4,30.19,North,360,2.0,5.0,48,0.00,,CLR,0.00,724.00,VWS V14.01,2013-03-09 16:17:00,
2013-03-09 11:22:00,44.1,25.7,30.19,NNW,336,0.0,1.0,48,0.00,,CLR,0.00,729.00,VWS V14.01,2013-03-09 16:22:00,
2013-03-09 11:27:00,44.7,25.2,30.19,NNE,24,1.0,1.0,46,0.00,,CLR,0.00,733.00,VWS V14.01,2013-03-09 16:27:00,
2013-03-09 11:32:00,44.9,24.9,30.19,NNE,15,3.0,3.0,45,0.00,,CLR,0.00,737.00,VWS V14.01,2013-03-09 16:32:00,
2013-03-09 11:37:00,45.1,24.5,30.18,NNW,345,0.0,1.0,44,0.00,,CLR,0.00,740.00,VWS V14.01,2013-03-09 16:37:00,
2013-03-09 11:42:00,45.3,23.0,30.18,North,355,0.0,6.0,41,0.00,,CLR,0.00,745.00,VWS V14.01,2013-03-09 16:42:00,
2013-03-09 11:47:00,45.2,23.5,30.18,North,11,4.0,5.0,42,0.00,,CLR,0.00,747.00,VWS V14.01,2013-03-09 16:47:00,
2013-03-09 11:52:00,45.4,23.7,30.18,NNW,342,7.0,7.0,42,0.00,,CLR,0.00,749.00,VWS V14.01,2013-03-09 16:52:00,
2013-03-09 11:57:00,45.7,24.5,30.18,NW,315,6.0,6.0,43,0.00,,CLR,0.00,751.00,VWS V14.01,2013-03-09 16:57:00,
2013-03-09 12:02:00,45.8,27.2,30.18,NW,325,0.0,2.0,48,0.00,,CLR,0.00,752.00,VWS V14.01,2013-03-09 17:02:00,
2013-03-09 12:07:00,45.9,26.8,30.18,NNW,345,0.0,0.0,47,0.00,,CLR,0.00,752.00,VWS V14.01,2013-03-09 17:07:00,
2013-03-09 12:12:00,45.8,25.1,30.18,NNW,345,0.0,3.0,44,0.00,,CLR,0.00,752.00,VWS V14.01,2013-03-09 17:12:00,
2013-03-09 12:17:00,46.2,25.0,30.18,North,5,5.0,5.0,43,0.00,,CLR,0.00,752.00,VWS V14.01,2013-03-09 17:17:00,
2013-03-09 12:22:00,46.4,24.0,30.18,NNE,17,3.0,5.0,41,0.00,,CLR,0.00,752.00,VWS V14.01,2013-03-09 17:22:00,
2013-03-09 12:27:00,46.4,24.6,30.18,NNE,14,2.0,4.0,42,0.00,,CLR,0.00,751.00,VWS V14.01,2013-03-09 17:27:00,
2013-03-09 12:32:00,46.4,23.4,30.17,NNW,346,1.0,7.0,40,0.00,,CLR,0.00,749.00,VWS V14.01,2013-03-09 17:32:00,
2013-03-09 12:37:00,46.6,24.2,30.17,North,360,2.0,4.0,41,0.00,,CLR,0.00,749.00,VWS V14.01,2013-03-09 17:37:00,
2013-03-09 12:42:00,47.1,25.2,30.17,NNW,344,5.0,5.0,42,0.00,,CLR,0.00,745.00,VWS V14.01,2013-03-09 17:42:00,
2013-03-09 12:47:00,47.5,23.8,30.17,NNW,339,5.0,7.0,39,0.00,,CLR,0.00,744.00,VWS V14.01,2013-03-09 17:47:00,
2013-03-09 12:52:00,47.3,24.2,30.17,North,5,2.0,5.0,40,0.00,,CLR,0.00,742.00,VWS V14.01,2013-03-09 17:52:00,
2013-03-09 12:57:00,47.2,24.7,30.17,North,360,3.0,5.0,41,0.00,,CLR,0.00,738.00,VWS V14.01,2013-03-09 17:57:00,
2013-03-09 13:02:00,47.5,24.4,30.17,NE,36,5.0,5.0,40,0.00,,CLR,0.00,733.00,VWS V14.01,2013-03-09 18:02:00,
2013-03-09 13:06:00,47.8,23.4,30.17,NNE,24,5.0,6.0,38,0.00,,CLR,0.00,729.00,VWS V14.01,2013-03-09 18:06:00,
2013-03-09 13:11:00,47.8,25.3,30.17,NNE,26,2.0,4.0,41,0.00,,CLR,0.00,724.00,VWS V14.01,2013-03-09 18:11:00,
2013-03-09 13:16:00,47.8,23.4,30.17,NNE,22,3.0,3.0,38,0.00,,CLR,0.00,719.00,VWS V14.01,2013-03-09 18:16:00,
2013-03-09 13:21:00,48.1,22.4,30.17,NNE,22,6.0,6.0,36,0.00,,CLR,0.00,714.00,VWS V14.01,2013-03-09 18:21:00,
2013-03-09 13:26:00,48.4,20.6,30.17,North,360,8.0,8.0,33,0.00,,CLR,0.00,708.00,VWS V14.01,2013-03-09 18:26:00,
2013-03-09 13:31:00,48.8,22.4,30.17,NNE,29,2.0,3.0,35,0.00,,CLR,0.00,701.00,VWS V14.01,2013-03-09 18:31:00,
2013-03-09 13:36:00,48.8,20.3,30.17,North,10,6.0,6.0,32,0.00,,CLR,0.00,696.00,VWS V14.01,2013-03-09 18:36:00,
2013-03-09 13:41:00,48.8,21.7,30.17,NE,46,3.0,4.0,34,0.00,,CLR,0.00,687.00,VWS V14.01,2013-03-09 18:41:00,
2013-03-09 13:46:00,49.1,22.0,30.16,NE,34,5.0,5.0,34,0.00,,CLR,0.00,680.00,VWS V14.01,2013-03-09 18:46:00,
2013-03-09 13:51:00,49.0,22.6,30.16,NNE,33,4.0,9.0,35,0.00,,CLR,0.00,671.00,VWS V14.01,2013-03-09 18:51:00,
2013-03-09 13:56:00,49.2,21.3,30.16,NNE,17,6.0,9.0,33,0.00,,CLR,0.00,650.00,VWS V14.01,2013-03-09 18:56:00,
2013-03-09 14:01:00,49.5,24.3,30.16,NNE,21,5.0,6.0,37,0.00,,CLR,0.00,656.00,VWS V14.01,2013-03-09 19:01:00,
2013-03-09 14:06:00,49.2,24.1,30.16,NNW,345,5.0,7.0,37,0.00,,CLR,0.00,647.00,VWS V14.01,2013-03-09 19:06:00,
2013-03-09 14:11:00,48.9,22.5,30.16,NNE,25,4.0,7.0,35,0.00,,CLR,0.00,636.00,VWS V14.01,2013-03-09 19:11:00,
2013-03-09 14:16:00,49.3,23.5,30.16,NE,38,2.0,7.0,36,0.00,,CLR,0.00,624.00,VWS V14.01,2013-03-09 19:16:00,
2013-03-09 14:21:00,49.3,22.8,30.16,NNE,33,5.0,8.0,35,0.00,,CLR,0.00,617.00,VWS V14.01,2013-03-09 19:21:00,
2013-03-09 14:26:00,49.2,22.7,30.16,NE,38,5.0,7.0,35,0.00,,CLR,0.00,596.00,VWS V14.01,2013-03-09 19:26:00,
2013-03-09 14:31:00,49.3,24.8,30.16,NNE,14,1.0,6.0,38,0.00,,CLR,0.00,592.00,VWS V14.01,2013-03-09 19:31:00,
2013-03-09 14:36:00,49.6,21.7,30.16,NNE,25,3.0,7.0,33,0.00,,CLR,0.00,582.00,VWS V14.01,2013-03-09 19:36:00,
2013-03-09 14:41:00,49.7,22.5,30.16,NE,44,6.0,11.0,34,0.00,,CLR,0.00,570.00,VWS V14.01,2013-03-09 19:41:00,
2013-03-09 14:46:00,50.0,22.8,30.16,NE,45,3.0,8.0,34,0.00,,CLR,0.00,555.00,VWS V14.01,2013-03-09 19:46:00,
2013-03-09 14:51:00,50.1,22.1,30.16,NE,50,0.0,8.0,33,0.00,,CLR,0.00,545.00,VWS V14.01,2013-03-09 19:51:00,
2013-03-09 14:56:00,50.2,21.5,30.16,NNE,17,5.0,9.0,32,0.00,,CLR,0.00,526.00,VWS V14.01,2013-03-09 19:56:00,
2013-03-09 15:01:00,50.1,21.4,30.16,North,11,4.0,8.0,32,0.00,,CLR,0.00,450.00,VWS V14.01,2013-03-09 20:01:00,
2013-03-09 15:06:00,50.1,22.1,30.16,NNE,19,2.0,11.0,33,0.00,,CLR,0.00,427.00,VWS V14.01,2013-03-09 20:06:00,
2013-03-09 15:11:00,50.3,22.3,30.16,NE,44,3.0,8.0,33,0.00,,CLR,0.00,494.00,VWS V14.01,2013-03-09 20:11:00,
2013-03-09 15:16:00,50.4,22.4,30.16,NE,53,6.0,7.0,33,0.00,,CLR,0.00,448.00,VWS V14.01,2013-03-09 20:16:00,
2013-03-09 15:21:00,50.5,21.0,30.16,NNE,33,6.0,7.0,31,0.00,,CLR,0.00,406.00,VWS V14.01,2013-03-09 20:21:00,
2013-03-09 15:26:00,50.5,21.0,30.16,NE,55,3.0,8.0,31,0.00,,CLR,0.00,403.00,VWS V14.01,2013-03-09 20:26:00,
2013-03-09 15:31:00,50.5,21.0,30.16,ESE,102,3.0,8.0,31,0.00,,CLR,0.00,436.00,VWS V14.01,2013-03-09 20:31:00,
2013-03-09 15:36:00,46.7,31.9,30.17,East,98,0.0,11.0,56,0.00,,CLR,0.00,420.00,VWS V14.01,2013-03-09 20:36:00,
2013-03-09 15:41:00,44.5,31.9,30.17,SE,137,7.0,11.0,61,0.00,,CLR,0.00,401.00,VWS V14.01,2013-03-09 20:41:00,
2013-03-09 15:46:00,43.6,33.0,30.18,East,95,7.0,11.0,66,0.00,,CLR,0.00,366.00,VWS V14.01,2013-03-09 20:46:00,
2013-03-09 15:51:00,42.8,33.3,30.18,ESE,107,11.0,13.0,69,0.00,,CLR,0.00,371.00,VWS V14.01,2013-03-09 20:51:00,
2013-03-09 15:56:00,42.6,33.5,30.18,ESE,121,5.0,11.0,70,0.00,,CLR,0.00,355.00,VWS V14.01,2013-03-09 20:56:00,
2013-03-09 16:01:00,42.6,33.9,30.19,ESE,110,7.0,8.0,71,0.00,,CLR,0.00,339.00,VWS V14.01,2013-03-09 21:01:00,
2013-03-09 16:06:00,42.2,33.8,30.19,East,87,5.0,9.0,72,0.00,,CLR,0.00,323.00,VWS V14.01,2013-03-09 21:06:00,
2013-03-09 16:11:00,42.2,34.5,30.19,East,97,9.0,9.0,74,0.00,,CLR,0.00,306.00,VWS V14.01,2013-03-09 21:11:00,
2013-03-09 16:16:00,41.8,34.5,30.19,East,92,9.0,11.0,75,0.00,,CLR,0.00,287.00,VWS V14.01,2013-03-09 21:16:00,
2013-03-09 16:21:00,41.6,34.6,30.20,ESE,118,5.0,10.0,76,0.00,,CLR,0.00,271.00,VWS V14.01,2013-03-09 21:21:00,
2013-03-09 16:26:00,42.1,35.1,30.20,ESE,107,1.0,7.0,76,0.00,,CLR,0.00,251.00,VWS V14.01,2013-03-09 21:26:00,
2013-03-09 16:31:00,42.1,34.1,30.20,ESE,103,7.0,13.0,73,0.00,,CLR,0.00,236.00,VWS V14.01,2013-03-09 21:31:00,
2013-03-09 16:36:00,42.0,33.3,30.20,ESE,106,7.0,14.0,71,0.00,,CLR,0.00,214.00,VWS V14.01,2013-03-09 21:36:00,
2013-03-09 16:41:00,41.9,33.2,30.20,East,98,6.0,10.0,71,0.00,,CLR,0.00,195.00,VWS V14.01,2013-03-09 21:41:00,
2013-03-09 16:46:00,41.7,32.7,30.21,ESE,120,9.0,12.0,70,0.00,,CLR,0.00,174.00,VWS V14.01,2013-03-09 21:46:00,
2013-03-09 16:51:00,41.5,32.5,30.21,East,86,6.0,10.0,70,0.00,,CLR,0.00,153.00,VWS V14.01,2013-03-09 21:51:00,
2013-03-09 16:56:00,41.3,31.9,30.21,East,91,7.0,14.0,69,0.00,,CLR,0.00,137.00,VWS V14.01,2013-03-09 21:56:00,
2013-03-09 17:01:00,41.2,31.8,30.21,ESE,105,5.0,10.0,69,0.00,,CLR,0.00,118.00,VWS V14.01,2013-03-09 22:01:00,
2013-03-09 17:06:00,41.0,31.6,30.21,SE,133,4.0,9.0,69,0.00,,CLR,0.00,86.00,VWS V14.01,2013-03-09 22:06:00,
2013-03-09 17:11:00,40.9,32.2,30.21,SE,130,0.0,10.0,71,0.00,,CLR,0.00,62.00,VWS V14.01,2013-03-09 22:11:00,
2013-03-09 17:16:00,40.5,32.5,30.21,ESE,112,3.0,9.0,73,0.00,,CLR,0.00,33.00,VWS V14.01,2013-03-09 22:16:00,
2013-03-09 17:21:00,40.1,32.2,30.21,ESE,114,0.0,5.0,73,0.00,,CLR,0.00,30.00,VWS V14.01,2013-03-09 22:21:00,
2013-03-09 17:26:00,39.9,32.3,30.22,East,87,10.0,10.0,74,0.00,,CLR,0.00,26.00,VWS V14.01,2013-03-09 22:26:00,
2013-03-09 17:31:00,39.8,32.2,30.22,ESE,105,5.0,8.0,74,0.00,,CLR,0.00,23.00,VWS V14.01,2013-03-09 22:31:00,
2013-03-09 17:36:00,39.5,32.2,30.22,East,101,3.0,7.0,75,0.00,,CLR,0.00,18.00,VWS V14.01,2013-03-09 22:36:00,
2013-03-09 17:41:00,39.3,32.4,30.22,ESE,112,2.0,3.0,76,0.00,,CLR,0.00,12.00,VWS V14.01,2013-03-09 22:41:00,
2013-03-09 17:46:00,39.1,32.5,30.23,ESE,112,4.0,5.0,77,0.00,,CLR,0.00,9.00,VWS V14.01,2013-03-09 22:46:00,
2013-03-09 17:51:00,38.7,32.1,30.23,ESE,107,0.0,4.0,77,0.00,,CLR,0.00,5.00,VWS V14.01,2013-03-09 22:51:00,
2013-03-09 17:56:00,38.6,32.0,30.23,East,92,2.0,6.0,77,0.00,,CLR,0.00,0.00,VWS V14.01,2013-03-09 22:56:00,
2013-03-09 18:01:00,38.7,31.8,30.23,East,84,8.0,8.0,76,0.00,,CLR,0.00,0.00,VWS V14.01,2013-03-09 23:01:00,
2013-03-09 18:06:00,38.8,31.6,30.23,ESE,111,8.0,9.0,75,0.00,,CLR,0.00,0.00,VWS V14.01,2013-03-09 23:06:00,
2013-03-09 18:11:00,38.9,31.3,30.23,ESE,111,9.0,11.0,74,0.00,,CLR,0.00,0.00,VWS V14.01,2013-03-09 23:11:00,
2013-03-09 18:16:00,38.9,31.3,30.23,ENE,73,4.0,10.0,74,0.00,,CLR,0.00,0.00,VWS V14.01,2013-03-09 23:16:00,
2013-03-09 18:21:00,38.8,31.2,30.23,East,81,3.0,13.0,74,0.00,,CLR,0.00,0.00,VWS V14.01,2013-03-09 23:21:00,
2013-03-09 18:25:00,38.6,31.4,30.23,East,90,4.0,9.0,75,0.00,,,0.00,0.00,VWS V14.01,2013-03-09 23:25:00,
2013-03-09 18:30:00,38.5,31.6,30.23,East,90,3.0,8.0,76,0.00,,,0.00,0.00,VWS V14.01,2013-03-09 23:30:00,
2013-03-09 18:35:00,38.4,32.2,30.23,ESE,112,3.0,7.0,78,0.00,,,0.00,0.00,VWS V14.01,2013-03-09 23:35:00,
2013-03-09 18:40:00,38.3,32.0,30.24,East,90,4.0,8.0,78,0.00,,,0.00,0.00,VWS V14.01,2013-03-09 23:40:00,
2013-03-09 18:50:00,38.1,32.2,30.24,ESE,112,3.0,6.0,79,0.00,,,0.00,0.00,VWS V14.01,2013-03-09 23:50:00,
2013-03-09 18:55:00,37.9,32.3,30.24,ESE,112,4.0,10.0,80,0.00,,,0.00,0.00,VWS V14.01,2013-03-09 23:55:00,
2013-03-09 19:00:00,37.9,32.3,30.25,ESE,112,4.0,8.0,80,0.00,,,0.00,0.00,VWS V14.01,2013-03-10 00:00:00,
2013-03-09 19:05:00,37.7,32.4,30.25,ESE,112,3.0,6.0,81,0.00,,,0.00,0.00,VWS V14.01,2013-03-10 00:05:00,
2013-03-09 19:10:00,37.5,32.5,30.25,SE,135,4.0,6.0,82,0.00,,,0.00,0.00,VWS V14.01,2013-03-10 00:10:00,
2013-03-09 19:15:00,37.3,32.6,30.25,ESE,112,4.0,7.0,83,0.00,,,0.00,0.00,VWS V14.01,2013-03-10 00:15:00,
2013-03-09 19:20:00,37.3,32.6,30.25,SE,135,4.0,7.0,83,0.00,,,0.00,0.00,VWS V14.01,2013-03-10 00:20:00,
2013-03-09 19:25:00,37.2,32.5,30.25,ESE,112,2.0,5.0,83,0.00,,,0.00,0.00,VWS V14.01,2013-03-10 00:25:00,
2013-03-09 19:30:00,37.1,32.7,30.26,ESE,112,3.0,7.0,84,0.00,,,0.00,0.00,VWS V14.01,2013-03-10 00:30:00,
2013-03-09 19:35:00,36.9,32.5,30.26,SE,135,1.0,7.0,84,0.00,,,0.00,0.00,VWS V14.01,2013-03-10 00:35:00,
2013-03-09 19:40:00,36.9,32.8,30.26,SE,135,1.0,4.0,85,0.00,,,0.00,0.00,VWS V14.01,2013-03-10 00:40:00,
2013-03-09 19:45:00,36.8,32.4,30.26,SE,135,1.0,6.0,84,0.00,,,0.00,0.00,VWS V14.01,2013-03-10 00:45:00,
2013-03-09 19:55:00,36.9,32.5,30.26,ESE,112,3.0,7.0,84,0.00,,,0.00,0.00,VWS V14.01,2013-03-10 00:55:00,
2013-03-09 20:00:00,36.9,32.5,30.26,East,90,5.0,8.0,84,0.00,,,0.00,0.00,VWS V14.01,2013-03-10 01:00:00,
2013-03-09 20:10:00,37.0,32.6,30.27,East,92,3.0,5.0,84,0.00,,,0.00,0.00,VWS V14.01,2013-03-10 01:10:00,
2013-03-09 20:15:00,37.0,32.9,30.27,ESE,110,3.0,7.0,85,0.00,,,0.00,0.00,VWS V14.01,2013-03-10 01:15:00,
2013-03-09 20:20:00,37.1,33.0,30.27,East,99,3.0,6.0,85,0.00,,,0.00,0.00,VWS V14.01,2013-03-10 01:20:00,
2013-03-09 20:25:00,37.0,33.2,30.27,ESE,103,7.0,7.0,86,0.00,,,0.00,0.00,VWS V14.01,2013-03-10 01:25:00,
2013-03-09 20:30:00,36.9,33.1,30.27,East,94,5.0,7.0,86,0.00,,,0.00,0.00,VWS V14.01,2013-03-10 01:30:00,
2013-03-09 20:35:00,37.0,33.2,30.27,East,100,5.0,7.0,86,0.00,,,0.00,0.00,VWS V14.01,2013-03-10 01:35:00,
2013-03-09 20:40:00,37.2,33.1,30.27,East,86,8.0,10.0,85,0.00,,,0.00,0.00,VWS V14.01,2013-03-10 01:40:00,
2013-03-09 20:45:00,37.2,33.1,30.28,ESE,102,8.0,8.0,85,0.00,,,0.00,0.00,VWS V14.01,2013-03-10 01:45:00,
2013-03-09 20:50:00,37.2,33.1,30.27,East,93,9.0,9.0,85,0.00,,,0.00,0.00,VWS V14.01,2013-03-10 01:50:00,
2013-03-09 20:55:00,37.1,33.0,30.27,ESE,103,4.0,10.0,85,0.00,,,0.00,0.00,VWS V14.01,2013-03-10 01:55:00,
2013-03-09 21:00:00,37.0,32.9,30.27,ENE,76,5.0,10.0,85,0.00,,,0.00,0.00,VWS V14.01,2013-03-10 02:00:00,
2013-03-09 21:05:00,36.9,32.8,30.27,East,95,6.0,8.0,85,0.00,,,0.00,0.00,VWS V14.01,2013-03-10 02:05:00,
2013-03-09 21:10:00,37.0,32.6,30.27,ESE,103,4.0,9.0,84,0.00,,,0.00,0.00,VWS V14.01,2013-03-10 02:10:00,
2013-03-09 21:15:00,37.0,32.6,30.27,East,95,3.0,9.0,84,0.00,,,0.00,0.00,VWS V14.01,2013-03-10 02:15:00,
2013-03-09 21:20:00,36.9,32.5,30.27,ESE,113,1.0,7.0,84,0.00,,,0.00,0.00,VWS V14.01,2013-03-10 02:20:00,
2013-03-09 21:25:00,36.9,32.5,30.28,East,82,3.0,8.0,84,0.00,,,0.00,0.00,VWS V14.01,2013-03-10 02:25:00,
2013-03-09 21:30:00,36.8,32.4,30.28,East,94,0.0,9.0,84,0.00,,,0.00,0.00,VWS V14.01,2013-03-10 02:30:00,
2013-03-09 21:35:00,36.6,32.2,30.28,East,87,0.0,6.0,84,0.00,,,0.00,0.00,VWS V14.01,2013-03-10 02:35:00,
2013-03-09 21:40:00,36.6,31.9,30.28,East,96,0.0,7.0,83,0.00,,,0.00,0.00,VWS V14.01,2013-03-10 02:40:00,
2013-03-09 21:44:00,36.6,31.9,30.29,East,84,0.0,5.0,83,0.00,,,0.00,0.00,VWS V14.01,2013-03-10 02:44:00,
2013-03-09 21:49:00,36.5,31.8,30.29,ESE,102,3.0,5.0,83,0.00,,,0.00,0.00,VWS V14.01,2013-03-10 02:49:00,
2013-03-09 21:54:00,36.4,31.7,30.29,East,90,3.0,3.0,83,0.00,,,0.00,0.00,VWS V14.01,2013-03-10 02:54:00,
2013-03-09 21:59:00,36.3,31.6,30.28,ENE,78,2.0,6.0,83,0.00,,,0.00,0.00,VWS V14.01,2013-03-10 02:59:00,
2013-03-09 22:04:00,36.3,31.3,30.28,East,83,0.0,7.0,82,0.00,,,0.00,0.00,VWS V14.01,2013-03-10 03:04:00,
2013-03-09 22:09:00,36.3,31.0,30.28,East,93,0.0,7.0,81,0.00,,,0.00,0.00,VWS V14.01,2013-03-10 03:09:00,
2013-03-09 22:14:00,36.2,30.9,30.28,ENE,71,0.0,7.0,81,0.00,,,0.00,0.00,VWS V14.01,2013-03-10 03:14:00,
2013-03-09 22:19:00,36.1,30.5,30.28,East,94,3.0,9.0,80,0.00,,,0.00,0.00,VWS V14.01,2013-03-10 03:19:00,
2013-03-09 22:24:00,36.2,30.3,30.28,East,84,6.0,7.0,79,0.00,,,0.00,0.00,VWS V14.01,2013-03-10 03:24:00,
2013-03-09 22:29:00,36.1,30.2,30.28,East,86,5.0,5.0,79,0.00,,,0.00,0.00,VWS V14.01,2013-03-10 03:29:00,
2013-03-09 22:34:00,36.0,30.1,30.28,ENE,60,0.0,5.0,79,0.00,,,0.00,0.00,VWS V14.01,2013-03-10 03:34:00,
2013-03-09 22:39:00,35.9,30.0,30.28,ENE,69,2.0,5.0,79,0.00,,,0.00,0.00,VWS V14.01,2013-03-10 03:39:00,
2013-03-09 22:44:00,35.8,29.6,30.29,ENE,72,1.0,4.0,78,0.00,,,0.00,0.00,VWS V14.01,2013-03-10 03:44:00,
2013-03-09 22:49:00,35.7,29.5,30.29,ENE,75,0.0,1.0,78,0.00,,,0.00,0.00,VWS V14.01,2013-03-10 03:49:00,
2013-03-09 22:54:00,35.7,29.2,30.29,ENE,71,3.0,4.0,77,0.00,,,0.00,0.00,VWS V14.01,2013-03-10 03:54:00,
2013-03-09 22:59:00,35.6,29.4,30.29,East,79,0.0,3.0,78,0.00,,,0.00,0.00,VWS V14.01,2013-03-10 03:59:00,
2013-03-09 23:04:00,35.3,29.1,30.29,East,79,0.0,0.0,78,0.00,,,0.00,0.00,VWS V14.01,2013-03-10 04:04:00,
2013-03-09 23:09:00,35.1,29.3,30.29,ENE,71,0.0,4.0,79,0.00,,,0.00,0.00,VWS V14.01,2013-03-10 04:09:00,
2013-03-09 23:14:00,35.0,29.2,30.29,ENE,71,0.0,3.0,79,0.00,,,0.00,0.00,VWS V14.01,2013-03-10 04:14:00,
2013-03-09 23:19:00,34.8,29.0,30.29,ENE,71,0.0,2.0,79,0.00,,,0.00,0.00,VWS V14.01,2013-03-10 04:19:00,
2013-03-09 23:24:00,34.8,29.0,30.30,ENE,71,0.0,2.0,79,0.00,,,0.00,0.00,VWS V14.01,2013-03-10 04:24:00,
2013-03-09 23:29:00,34.8,29.0,30.30,ENE,71,0.0,3.0,79,0.00,,,0.00,0.00,VWS V14.01,2013-03-10 04:29:00,
2013-03-09 23:34:00,34.7,28.9,30.30,ENE,71,0.0,3.0,79,0.00,,,0.00,0.00,VWS V14.01,2013-03-10 04:34:00,
2013-03-09 23:39:00,34.6,28.8,30.31,ENE,70,2.0,3.0,79,0.00,,,0.00,0.00,VWS V14.01,2013-03-10 04:39:00,
2013-03-09 23:44:00,34.4,28.9,30.31,ENE,69,0.0,2.0,80,0.00,,,0.00,0.00,VWS V14.01,2013-03-10 04:44:00,
2013-03-09 23:49:00,34.4,28.9,30.31,ENE,70,0.0,1.0,80,0.00,,,0.00,0.00,VWS V14.01,2013-03-10 04:49:00,
2013-03-09 23:54:00,34.3,28.8,30.31,ENE,70,0.0,2.0,80,0.00,,,0.00,0.00,VWS V14.01,2013-03-10 04:54:00,
2013-03-09 23:59:00,34.1,28.9,30.31,ENE,57,3.0,5.0,81,0.00,,,0.00,0.00,VWS V14.01,2013-03-10 04:59:00,